TimeCDT,TemperatureF,Dew PointF,Humidity,Sea Level PressureIn,VisibilityMPH,Wind Direction,Wind SpeedMPH,Gust SpeedMPH,PrecipitationIn,Events,Conditions,WindDirDegrees,DateUTC
12:56 AM,55.9,50.0,80,30.17,10.0,SSE,11.5,-,N/A,,Clear,160,2013-09-17 05:56:00
1:56 AM,57.0,51.1,81,30.17,10.0,SSE,12.7,-,N/A,,Overcast,160,2013-09-17 06:56:00
2:56 AM,57.0,51.1,81,30.15,10.0,SSE,12.7,-,N/A,,Overcast,150,2013-09-17 07:56:00
3:11 AM,57.2,51.8,82,30.15,10.0,SSE,15.0,20.7,N/A,,Overcast,160,2013-09-17 08:11:00
3:56 AM,57.0,51.1,81,30.13,10.0,South,10.4,17.3,N/A,,Overcast,170,2013-09-17 08:56:00
4:21 AM,57.2,51.8,82,30.12,10.0,SSE,11.5,-,N/A,,Overcast,150,2013-09-17 09:21:00
4:56 AM,57.0,52.0,83,30.10,10.0,South,9.2,-,N/A,,Overcast,170,2013-09-17 09:56:00
5:56 AM,57.0,53.1,87,30.09,10.0,SSE,11.5,-,N/A,,Overcast,160,2013-09-17 10:56:00
6:26 AM,57.2,53.6,88,30.09,10.0,SSE,13.8,-,N/A,,Overcast,150,2013-09-17 11:26:00
6:56 AM,57.0,54.0,89,30.08,10.0,SSE,11.5,-,N/A,,Overcast,160,2013-09-17 11:56:00
7:56 AM,57.0,54.0,89,30.07,10.0,SSE,11.5,-,0.00,,Overcast,160,2013-09-17 12:56:00
8:56 AM,57.0,54.0,89,30.06,10.0,SSE,15.0,20.7,N/A,,Overcast,160,2013-09-17 13:56:00
9:56 AM,57.9,55.0,90,30.05,10.0,SSE,17.3,20.7,N/A,,Overcast,160,2013-09-17 14:56:00
10:56 AM,59.0,55.9,90,30.04,10.0,South,15.0,-,N/A,,Overcast,170,2013-09-17 15:56:00
11:56 AM,61.0,55.9,83,30.02,10.0,SSE,17.3,24.2,N/A,,Overcast,160,2013-09-17 16:56:00
12:39 PM,60.8,57.2,88,30.00,10.0,SSE,13.8,19.6,N/A,,Overcast,160,2013-09-17 17:39:00
12:56 PM,61.0,57.0,87,29.99,10.0,South,16.1,-,N/A,,Overcast,170,2013-09-17 17:56:00
1:56 PM,62.1,57.0,84,29.97,9.0,SSE,9.2,-,N/A,,Overcast,160,2013-09-17 18:56:00
2:56 PM,62.1,57.9,86,29.94,6.0,SSE,11.5,-,0.00,,Light Drizzle,150,2013-09-17 19:56:00
3:24 PM,62.6,59.0,88,29.92,2.5,SSE,11.5,-,0.00,,Light Drizzle,160,2013-09-17 20:24:00
3:56 PM,62.1,59.0,90,29.91,2.0,SSE,15.0,18.4,0.00,,Light Drizzle,150,2013-09-17 20:56:00
4:31 PM,62.6,60.8,94,29.90,5.0,SSE,11.5,18.4,0.00,,Overcast,150,2013-09-17 21:31:00
4:56 PM,63.0,60.1,90,29.90,5.0,SSE,11.5,-,0.00,,Overcast,150,2013-09-17 21:56:00
5:56 PM,63.0,60.1,90,29.89,6.0,SSE,12.7,21.9,N/A,,Overcast,160,2013-09-17 22:56:00
6:56 PM,63.0,61.0,93,29.88,3.0,SSE,10.4,-,0.00,,Light Drizzle,150,2013-09-17 23:56:00
7:01 PM,62.6,60.8,94,29.87,2.5,SSE,13.8,-,0.00,,Light Drizzle,150,2013-09-18 00:01:00
7:14 PM,62.6,62.6,100,29.87,1.8,SSE,9.2,-,0.00,,Light Drizzle,150,2013-09-18 00:14:00
7:56 PM,63.0,62.1,97,29.86,2.0,SSE,10.4,-,0.00,,Light Drizzle,150,2013-09-18 00:56:00
8:56 PM,64.0,63.0,96,29.86,2.0,SSE,11.5,-,0.01,Rain,Light Rain,150,2013-09-18 01:56:00
9:29 PM,64.4,62.6,94,29.86,3.0,SSE,10.4,-,0.00,,Light Drizzle,150,2013-09-18 02:29:00
9:56 PM,64.9,64.0,97,29.85,3.0,SSE,12.7,-,0.00,,Overcast,160,2013-09-18 02:56:00
10:56 PM,64.9,64.0,97,29.85,5.0,SSE,12.7,-,N/A,,Overcast,150,2013-09-18 03:56:00
11:56 PM,66.0,64.0,93,29.83,6.0,SSE,12.7,-,N/A,,Overcast,160,2013-09-18 04:56:00